Terminal Aerodrome Forecast
Issued by NWS

Home | Current Version | Previous Version | Text Only | Print | Product List | Glossary On
Versions: 1 2 3 4 5 6 7 8 9 10 11 12 13 14 15 16 17 18 19 20 21 22 23 24 25 26 27 28 29 30 31 32 33 34 35 36 37 38 39 40 41 42 43 44 45 46 47 48 49 50
000
FTUS45 KBOU 242201 AAB
TAFBJC
TAF AMD
KBJC 242201Z 2422/2518 31016G24KT P6SM VCSH SCT050 BKN070
     FM250100 30012G18KT P6SM SCT070 BKN100
     FM250300 25012KT P6SM FEW080 SCT120
     FM251100 27014KT P6SM FEW120 BKN200
      TEMPO 2514/2518 27020G30KT=

USA.gov is the U.S. government's official web portal to all federal, state and local government web resources and services.